Weather History for Edinburgh Airport, United Kingdom

Change the Weather History Date:

Wednesday, February 6, 2013

  Actual Average Record
Temperature  
Mean Temperature 37 °F -  
Max Temperature 41 °F 45 °F 53 °F (1997)
Min Temperature 33 °F 33 °F 23 °F (2007)
Degree Days  
Heating Degree Days 28    
Moisture  
Dew Point 28 °F    
Average Humidity 66    
Maximum Humidity 76    
Minimum Humidity 56    
Precipitation  
Precipitation 0.00 in 0.06 in - ()
Sea Level Pressure  
Sea Level Pressure 29.96 in    
Wind  
Wind Speed 10 mph ()    
Max Wind Speed 18 mph    
Max Gust Speed 29 mph    
Visibility 6.2 miles    
Events      
Averages and records for this station are not official NWS values.
T = Trace of Precipitation, MM = Missing Value Source: Averaged Metar Reports

Daily Weather History Graph

Daily Weather History Graph

Search for Another Location

Airport:

Trip Planner

Search our weather history database for the weather conditions in past years. The results will help you decide how hot, cold, wet, or windy it might be!

Date:

Astronomy

Feb. 06, 2013 Rise Set
Actual Time 7:57 AM GMT 4:57 PM GMT
Civil Twilight 7:17 AM GMT 5:38 PM GMT
Nautical Twilight 6:33 AM GMT 6:22 PM GMT
Astronomical Twilight 5:50 AM GMT 7:05 PM GMT
Moon 4:50 AM GMT (2/6) 12:37 PM GMT (2/6)
Length of Visible Light 10h 20m
Length of Day
9h 00m
Waning Crescent, 19% of the Moon is Illuminated
Feb 6
Waning Crescent
Feb 10
New
Feb 17
First Quarter
Feb 25
Full
Mar 4
Last Quarter

Hourly Weather History & Observations

Time (GMT) Temp. Windchill Dew Point Humidity Pressure Visibility Wind Dir Wind Speed Gust Speed Precip Events Conditions
12:20 AM 41.0 °F 32.2 °F 33.8 °F 76% 29.59 in 6.2 mi North 18.4 mph - N/A   Mostly Cloudy
12:50 AM 41.0 °F 33.1 °F 32.0 °F 70% 29.62 in 6.2 mi North 15.0 mph - N/A   Mostly Cloudy
1:20 AM 39.2 °F 31.6 °F 32.0 °F 75% 29.65 in 6.2 mi North 12.7 mph - N/A   Partly Cloudy
1:50 AM 39.2 °F 32.5 °F 30.2 °F 70% 29.68 in 6.2 mi North 10.4 mph - N/A   Partly Cloudy
2:20 AM 39.2 °F 32.0 °F 30.2 °F 70% 29.68 in - NNW 11.5 mph - N/A   Clear
2:50 AM 39.2 °F 31.6 °F 28.4 °F 65% 29.71 in 6.2 mi North 12.7 mph - N/A   Scattered Clouds
3:20 AM 37.4 °F 29.8 °F 28.4 °F 70% 29.74 in - North 11.5 mph - N/A   Clear
3:50 AM 37.4 °F 31.4 °F 28.4 °F 70% 29.77 in 6.2 mi NNW 8.1 mph - N/A   Partly Cloudy
4:20 AM 37.4 °F 31.4 °F 28.4 °F 70% 29.77 in 6.2 mi WNW 8.1 mph - N/A   Partly Cloudy
4:50 AM 37.4 °F 32.1 °F 28.4 °F 70% 29.80 in - NNW 6.9 mph - N/A   Clear
5:20 AM 37.4 °F 29.8 °F 28.4 °F 70% 29.80 in - NNW 11.5 mph - N/A   Clear
5:50 AM 37.4 °F 29.8 °F 28.4 °F 70% 29.83 in - NW 11.5 mph - N/A   Clear
6:20 AM 35.6 °F 27.5 °F 28.4 °F 75% 29.86 in - NNW 11.5 mph - N/A   Clear
6:50 AM 37.4 °F 30.8 °F 28.4 °F 70% 29.86 in - NNW 9.2 mph - N/A   Clear
7:20 AM 35.6 °F 29.2 °F 28.4 °F 75% 29.89 in - NNW 8.1 mph - N/A   Clear
7:50 AM 35.6 °F 29.2 °F 26.6 °F 70% 29.89 in - NW 8.1 mph - N/A   Clear
8:20 AM 35.6 °F 29.2 °F 28.4 °F 75% 29.92 in 6.2 mi NW 8.1 mph - N/A   Partly Cloudy
8:50 AM 37.4 °F 31.4 °F 28.4 °F 70% 29.92 in 6.2 mi NW 8.1 mph - N/A   Partly Cloudy
9:20 AM 37.4 °F 30.8 °F 28.4 °F 70% 29.95 in 6.2 mi NW 9.2 mph - N/A   Partly Cloudy
9:50 AM 37.4 °F 32.1 °F 28.4 °F 70% 29.95 in 6.2 mi NW 6.9 mph - N/A   Partly Cloudy
10:20 AM 39.2 °F 35.0 °F 28.4 °F 65% 29.98 in 6.2 mi NNW 5.8 mph - N/A   Partly Cloudy
10:50 AM 39.2 °F 33.6 °F 30.2 °F 70% 30.01 in 6.2 mi NNW 8.1 mph - N/A   Partly Cloudy
11:20 AM 39.2 °F 33.0 °F 30.2 °F 70% 30.01 in 6.2 mi NNW 9.2 mph - N/A   Partly Cloudy
11:50 AM 39.2 °F 33.6 °F 30.2 °F 70% 30.01 in 6.2 mi NNW 8.1 mph - N/A   Partly Cloudy
12:20 PM 41.0 °F 34.7 °F 30.2 °F 65% 30.04 in 6.2 mi NNW 10.4 mph - N/A   Scattered Clouds
12:50 PM 41.0 °F 35.8 °F 30.2 °F 65% 30.04 in 6.2 mi NNW 8.1 mph - N/A   Scattered Clouds
1:20 PM 41.0 °F 33.1 °F 28.4 °F 61% 30.04 in 6.2 mi NNW 15.0 mph - N/A   Scattered Clouds
1:50 PM 41.0 °F 34.3 °F 28.4 °F 61% 30.04 in 6.2 mi NNW 11.5 mph - N/A   Partly Cloudy
2:20 PM 41.0 °F 33.9 °F 28.4 °F 61% 30.04 in 6.2 mi NNW 12.7 mph - N/A   Scattered Clouds
2:50 PM 41.0 °F 34.7 °F 28.4 °F 61% 30.06 in 6.2 mi NW 10.4 mph - N/A   Mostly Cloudy
3:20 PM 41.0 °F 35.8 °F 28.4 °F 61% 30.06 in 6.2 mi NW 8.1 mph - N/A   Partly Cloudy
3:50 PM 41.0 °F 35.2 °F 28.4 °F 61% 30.06 in 6.2 mi NW 9.2 mph - N/A   Partly Cloudy
4:20 PM 41.0 °F 35.2 °F 26.6 °F 57% 30.06 in 6.2 mi NW 9.2 mph - N/A   Partly Cloudy
4:50 PM 39.2 °F 34.2 °F 26.6 °F 61% 30.09 in 6.2 mi NW 6.9 mph - N/A   Scattered Clouds
5:20 PM 39.2 °F 35.0 °F 26.6 °F 61% 30.09 in 6.2 mi WNW 5.8 mph - N/A   Scattered Clouds
5:50 PM 39.2 °F 35.0 °F 26.6 °F 61% 30.09 in 6.2 mi West 5.8 mph - N/A   Scattered Clouds
6:20 PM 39.2 °F 35.9 °F 26.6 °F 61% 30.09 in 6.2 mi NW 4.6 mph - N/A   Mostly Cloudy
6:50 PM 39.2 °F 35.0 °F 26.6 °F 61% 30.09 in 6.2 mi NW 5.8 mph - N/A   Mostly Cloudy
7:20 PM 39.2 °F 30.8 °F 26.6 °F 61% 30.12 in 6.2 mi NNW 15.0 mph 28.8 mph N/A   Scattered Clouds
7:50 PM 39.2 °F 32.5 °F 24.8 °F 56% 30.12 in 6.2 mi NW 10.4 mph - N/A   Mostly Cloudy
8:20 PM 39.2 °F 33.0 °F 24.8 °F 56% 30.12 in 6.2 mi NNW 9.2 mph - N/A   Mostly Cloudy
8:50 PM 39.2 °F 35.0 °F 26.6 °F 61% 30.12 in 6.2 mi NNW 5.8 mph - N/A   Mostly Cloudy
9:20 PM 37.4 °F 32.8 °F 24.8 °F 60% 30.12 in 6.2 mi WNW 5.8 mph - N/A   Partly Cloudy
9:50 PM 37.4 °F - 24.8 °F 60% 30.12 in 6.2 mi Variable 2.3 mph - N/A   Scattered Clouds
10:20 PM 37.4 °F 32.8 °F 24.8 °F 60% 30.12 in 6.2 mi WNW 5.8 mph - N/A   Partly Cloudy
10:50 PM 33.8 °F 27.7 °F 24.8 °F 70% 30.12 in 6.2 mi WSW 6.9 mph - N/A   Partly Cloudy
11:20 PM 35.6 °F 27.5 °F 26.6 °F 70% 30.12 in 6.2 mi WSW 11.5 mph - N/A   Partly Cloudy
11:50 PM 37.4 °F 32.1 °F 24.8 °F 60% 30.12 in 6.2 mi West 6.9 mph - N/A   Partly Cloudy